Location: Acequia del Cap
(41.7000°N, 0.6167°E)
Time: 15:48:32
(UTC+00:00)

Cosmos 1703 - Pass Details

Date: 07 August 2020
Orbit: 523 x 540 km, 82.5° (Epoch: 23 September)

Event Time Altitude Azimuth Distance (km) Brightness Sun altitude
Rises 04:06:14 0° 347° (NNW) 2,708 7.1 -9.4°
Reaches altitude 10° 04:08:25 10° 343° (NNW) 1,811 6.2 -9.1°
Maximum altitude 04:12:19 56° 266° (W) 648 3.4 -8.5°
Drops below altitude 10° 04:16:11 10° 188° (S) 1,791 5.6 -7.8°
Sets 04:18:20 0° 184° (S) 2,674 6.5 -7.5°
